Regional Weather Roundup
Issued by NWS Cleveland, OH

Home | Current Version | Previous Version | Graphics & Text | Print | Product List | Glossary On
Versions: 1 2 3 4 5 6 7 8 9 10 11 12 13 14 15 16 17 18 19 20 21 22 23 24 25 26 27 28 29 30 31 32 33 34 35 36 37 38 39 40 41 42 43 44 45 46 47 48 49 50
000
ASUS41 KCLE 291412
RWRCLE
OHIO REGIONAL WEATHER ROUNDUP
NATIONAL WEATHER SERVICE WILMINGTON, OH
1000 AM EDT FRI JUL 29 2016

NOTE: "FAIR" INDICATES FEW OR NO CLOUDS BELOW 12,000 FEET WITH NO
SIGNIFICANT WEATHER AND/OR OBSTRUCTIONS TO VISIBILITY.

OHZ001>008-015>018-024>027-034-035-043-044-291500-
   NORTHWEST OHIO

CITY           SKY/WX    TMP DP  RH WIND       PRES   REMARKS
DEFIANCE       FAIR      78  65  63 VRB6      29.94F
FINDLAY        FAIR      78  66  66 E7        29.93F
TOLEDO EXPRESS FAIR      76  66  71 E5        29.94F
TOLEDO EXEC    FAIR      81  71  71 NE5       29.95S
LIMA           FAIR      78  70  76 CALM      29.94F
$$

OHZ009>014-019>023-028>033-038-089-291500-
   NORTHEAST OHIO

CITY           SKY/WX    TMP DP  RH WIND       PRES   REMARKS
CLE-HOPKINS    PTSUNNY   81  69  67 CALM      29.97R
CLE-LAKEFRONT  FAIR      78  70  76 NW6       29.94R
CUY CO. ARPT   PTSUNNY   81  73  78 SE6       29.96S HAZE
LORAIN-ELYRIA  FAIR      78  68  71 CALM      29.95F
ASHTABULA      CLOUDY    72  71  97 VRB3      29.97S
AKRON-CANTON   CLOUDY    72  66  81 S5        29.97S FOG
WOOSTER        CLOUDY    70  68  93 CALM      29.98S FOG
MANSFIELD      FAIR      80  64  58 CALM      29.97S
YOUNGSTOWN     CLOUDY    70  66  87 W5        29.98R FOG
$$

OHZ042-051>053-060>062-070>072-077>081-291500-
  SOUTHWEST OHIO

CITY           SKY/WX    TMP DP  RH WIND       PRES   REMARKS
CINC-COVINGTON FAIR      77  71  82 SW5       29.95S
CINC-LUNKEN    CLOUDY    76  73  91 S3        29.94S
HAMILTON       FAIR      78  71  79 CALM      29.95S
DAYTON         FAIR      78  69  73 S5        29.96S
WRIGHT-PAT AFB FAIR      78  71  80 SW3       29.94F
DAYTON GENERAL FAIR      77  69  76 CALM      29.95S
WILMINGTON     CLOUDY    77  72  84 VRB3      29.96S
$$

OHZ036-037-039>041-045>050-054>059-063>069-073>076-082>088-291500-
  CENTRAL AND SOUTHEAST OHIO

CITY           SKY/WX    TMP DP  RH WIND       PRES   REMARKS
COLUMBUS       CLOUDY    71  70  96 S3        29.95S FOG
OSU AIRPORT    CLOUDY    72  71  97 SE6       29.95S FOG
BOLTON FIELD   FOG       72  72 100 S3          N/A  VSB 1
RICKENBACK AFB CLOUDY    71  71 100 S5        29.95S FOG
NEWARK         CLOUDY    72  69  90 VRB3      29.96S FOG
MARION         FAIR      77  68  73 S6        29.96S
LANCASTER      CLOUDY    75  72  90 CALM      29.96S
ZANESVILLE     CLOUDY    75  69  81 CALM      29.97R
NEW PHILLY     CLOUDY    76  68  76 W3        29.97R
$$



USA.gov is the U.S. government's official web portal to all federal, state and local government web resources and services.